This demonstration page uses our WeatherBlox Daily Observations layout. Learn more.

Left ArrowRight Arrow

39.51506, -84.39828

Hourly Observations for January 16, 2022

Temp ( °F °C ) Dew Point ( °F °C ) Humidity (%) Winds ( mph kmh ) Pressure ( in mb ) Visibility ( mi km ) Precip ( " mm )
12:15 am 00:15 Clear 22 -5.8 11 -11.6 64 64 ENE 10 17 30.24 1024 10 16 0.00 0.00
12:35 am 00:35 Clear 22 -5.8 10 -12.3 61 61 ENE 7 11 30.24 1024 10 16 0.00 0.00
12:55 am 00:55 Clear 22 -5.7 10 -12.3 60 60 ENE 9 15 30.25 1024 10 16 0.00 0.00
1:15 am 01:15 Clear 21 -6.1 10 -12.4 61 61 ENE 9 15 30.18 1022 10 16 0.00 0.00
1:35 am 01:35 Clear 21 -6.1 10 -12.5 61 61 ENE 9 15 30.20 1023 10 16 0.00 0.00
1:55 am 01:55 Clear 21 -6.3 9 -12.6 61 61 E 9 15 30.19 1022 10 16 0.00 0.00
2:15 am 02:15 Clear 20 -6.4 9 -12.7 61 61 E 8 13 30.20 1023 10 16 0.00 0.00
2:35 am 02:35 Clear 20 -6.4 8 -13.1 59 59 E 6 9 30.21 1023 10 16 0.00 0.00
2:55 am 02:55 Clear 20 -6.7 8 -13.1 61 61 E 9 15 30.20 1023 10 16 0.00 0.00
3:15 am 03:15 Clear 20 -6.8 8 -13.1 61 61 E 8 13 30.19 1022 10 16 0.00 0.00
3:35 am 03:35 Clear 20 -6.9 8 -13.3 61 61 E 8 13 30.18 1022 10 16 0.00 0.00
3:55 am 03:55 Clear 20 -6.9 8 -13.4 60 60 E 8 13 30.17 1022 10 16 0.00 0.00
4:15 am 04:15 Clear 19 -7.2 8 -13.3 62 62 ENE 8 13 30.17 1022 10 16 0.00 0.00
4:35 am 04:35 Clear 19 -7.3 8 -13.3 63 63 ENE 6 9 30.16 1021 10 16 0.00 0.00
4:55 am 04:55 Clear 19 -7.3 8 -13.2 63 63 ENE 7 11 30.15 1021 10 16 0.00 0.00
5:15 am 05:15 Clear 19 -7.5 8 -13.3 64 64 ENE 7 11 30.14 1021 10 16 0.00 0.00
5:35 am 05:35 Clear 18 -7.7 8 -13.2 65 65 ENE 7 11 30.14 1021 10 16 0.00 0.00
5:55 am 05:55 Clear 19 -7.5 8 -13.5 63 63 ENE 7 11 30.12 1020 10 16 0.00 0.00
6:15 am 06:15 Clear 18 -7.7 8 -13.3 65 65 ENE 9 15 30.11 1020 10 16 0.00 0.00
6:35 am 06:35 Clear 18 -7.6 8 -13.3 64 64 ENE 8 13 30.10 1019 10 16 0.00 0.00
6:55 am 06:55 Clear 19 -7.5 8 -13.2 64 64 ENE 9 15 30.09 1019 10 16 0.00 0.00
7:15 am 07:15 Clear 19 -7.5 9 -13 65 65 ENE 8 13 30.09 1019 10 16 0.00 0.00
7:35 am 07:35 Clear 19 -7.3 9 -13 64 64 E 7 11 30.09 1019 10 16 0.00 0.00
7:55 am 07:55 Clear 19 -7.5 8 -13.1 65 65 ENE 7 11 30.08 1018 10 16 0.00 0.00
8:15 am 08:15 Sunny 18 -7.6 8 -13.1 65 65 ENE 8 13 30.06 1018 10 16 0.00 0.00
8:35 am 08:35 Sunny 19 -7.5 9 -12.8 66 66 ENE 7 11 30.06 1018 10 16 0.00 0.00
8:55 am 08:55 Sunny 19 -7.2 9 -12.9 64 64 ENE 8 13 30.04 1017 10 16 0.00 0.00
9:15 am 09:15 Sunny 20 -6.5 9 -12.7 62 62 E 8 13 30.03 1017 10 16 0.00 0.00
9:35 am 09:35 Sunny 22 -5.8 10 -12.4 60 60 E 9 15 30.01 1016 10 16 0.00 0.00
9:55 am 09:55 Sunny 22 -5.5 10 -12.4 59 59 E 8 13 30.00 1016 10 16 0.00 0.00
10:15 am 10:15 Sunny 23 -4.8 11 -11.9 58 58 E 8 13 29.99 1016 10 16 0.00 0.00
10:35 am 10:35 Sunny 25 -4 12 -11.3 57 57 E 7 11 29.99 1015 10 16 0.00 0.00
10:55 am 10:55 Sunny 26 -3.4 12 -10.9 57 57 ENE 8 13 29.96 1015 10 16 0.00 0.00
11:15 am 11:15 Sunny 27 -2.6 13 -10.4 55 55 E 9 15 29.94 1014 10 16 0.00 0.00
11:35 am 11:35 Sunny 28 -2.2 14 -9.8 56 56 E 8 13 29.93 1014 10 16 0.00 0.00
11:55 am 11:55 Sunny 28 -2.1 15 -9.7 56 56 E 9 15 29.90 1013 10 16 0.00 0.00
12:15 pm 12:15 Sunny 29 -1.6 15 -9.2 57 57 E 9 15 29.89 1012 10 16 0.00 0.00
12:35 pm 12:35 Mostly Cloudy 29 -1.5 16 -9 57 57 E 9 15 29.88 1012 10 16 0.00 0.00
12:55 pm 12:55 Cloudy 29 -1.4 16 -8.9 57 57 E 8 13 29.86 1011 10 16 0.00 0.00
1:15 pm 13:15 Cloudy 30 -1 17 -8.3 58 58 E 9 15 29.85 1011 10 16 0.00 0.00
1:35 pm 13:35 Cloudy 30 -1.1 17 -8.4 58 58 ENE 9 15 29.83 1010 10 16 0.00 0.00
1:55 pm 13:55 Cloudy 30 -0.9 17 -8.1 59 59 ENE 10 17 29.82 1010 10 16 0.00 0.00
2:15 pm 14:15 Cloudy 31 -0.8 18 -7.6 60 60 ENE 8 13 29.81 1009 10 16 0.00 0.00
2:35 pm 14:35 Cloudy with Light Snow 31 -0.6 19 -7.2 61 61 ENE 9 15 29.80 1009 10 16 0.00 0.00
2:55 pm 14:55 Cloudy with Light Snow 31 -0.5 20 -6.8 63 63 ENE 9 15 29.79 1009 10 16 0.00 0.00
3:15 pm 15:15 Cloudy with Light Snow 31 -0.4 21 -6.3 65 65 ENE 8 13 29.78 1008 10 16 0.00 0.00
3:35 pm 15:35 Cloudy with Light Snow 31 -0.3 21 -6.2 65 65 NE 9 15 29.76 1008 10 16 0.00 0.00
3:55 pm 15:55 Cloudy with Light Snow 31 -0.3 22 -5.8 67 67 NE 10 17 29.75 1007 10 16 0.00 0.00
4:15 pm 16:15 Cloudy with Light Rain 32 -0.2 22 -5.5 68 68 ENE 9 15 29.75 1007 10 16 0.00 0.00
4:35 pm 16:35 Cloudy with Light Snow 31 -0.3 23 -5.1 70 70 NE 9 15 29.74 1007 7 11 0.00 0.00
4:55 pm 16:55 Cloudy with Light Snow 31 -0.6 24 -4.4 76 76 ENE 10 17 29.74 1007 3 5 0.00 0.00
5:15 pm 17:15 Cloudy with Light Snow 30 -1 26 -3.2 85 85 ENE 8 13 29.73 1007 2 3 0.00 0.00
5:35 pm 17:35 Cloudy with Light Snow 30 -1 27 -3 86 86 ENE 10 17 29.72 1006 3 4 0.00 0.00
5:55 pm 17:55 Cloudy with Light Snow 30 -1.1 27 -2.9 88 88 ENE 9 15 29.72 1006 4 6 0.00 0.00
6:15 pm 18:15 Cloudy with Light Snow 29 -1.4 27 -2.7 91 91 ENE 12 19 29.72 1006 2 3 0.02 0.51
6:35 pm 18:35 Cloudy with Light Snow 29 -1.6 27 -2.6 93 93 ENE 9 15 29.71 1006 3 4 0.02 0.51
6:55 pm 18:55 Cloudy with Light Snow 29 -1.7 28 -2.4 95 95 NE 7 11 29.71 1006 2 3 0.03 0.76
7:15 pm 19:15 Cloudy with Light Snow 29 -1.6 28 -2.3 95 95 ENE 6 9 29.70 1006 3 4 0.00 0.00
7:35 pm 19:35 Cloudy with Light Snow 29 -1.6 28 -2.3 95 95 NE 6 9 29.70 1006 4 6 0.00 0.00
7:55 pm 19:55 Cloudy with Light Snow 29 -1.6 28 -2.3 95 95 NE 5 7 29.70 1006 3 5 0.00 0.00
8:15 pm 20:15 Cloudy with Light Snow 29 -1.6 28 -2.3 95 95 NNE 7 11 29.68 1005 3 4 0.00 0.00
8:35 pm 20:35 Cloudy with Light Snow 29 -1.6 28 -2.2 96 96 NE 7 11 29.68 1005 2 3 0.01 0.25
8:55 pm 20:55 Cloudy with Light Snow 29 -1.6 28 -2.2 96 96 NNE 8 13 29.66 1004 2 2 0.02 0.51
9:15 pm 21:15 Cloudy with Light Snow 29 -1.6 28 -2.2 96 96 NE 7 11 29.65 1004 3 4 0.00 0.00
9:35 pm 21:35 Cloudy with Light Snow 29 -1.5 28 -2.3 94 94 N 8 13 29.65 1004 3 5 0.00 0.00
9:55 pm 21:55 Cloudy with Light Snow 29 -1.5 28 -2.3 94 94 NNE 10 17 29.65 1004 2 3 0.00 0.00
10:15 pm 22:15 Cloudy with Light Snow 29 -1.6 28 -2.4 94 94 NNE 8 13 29.64 1004 3 5 0.00 0.00
10:35 pm 22:35 Cloudy with Light Snow 29 -1.6 28 -2.3 95 95 NNE 6 9 29.63 1003 3 4 0.01 0.25
10:55 pm 22:55 Cloudy with Light Snow 29 -1.5 27 -3 90 90 NE 8 13 29.62 1003 7 11 0.01 0.25
11:15 pm 23:15 Cloudy 30 -1.3 26 -3.6 85 85 N 7 11 29.61 1003 10 16 0.00 0.00
11:35 pm 23:35 Cloudy 30 -1.1 24 -4.4 79 79 N 8 13 29.60 1002 10 16 0.00 0.00
11:55 pm 23:55 Cloudy 30 -1.2 23 -4.9 76 76 N 10 17 29.60 1002 10 16 0.00 0.00

Powered by AerisWeather